Location: Clermont
(50.2608°N, 4.3172°E)
Time: 20:46:02
(UTC+00:00)

Cosmos 1464 Rocket - Pass Details

Date: 13 August 2020
Orbit: 952 x 1002 km, 82.9° (Epoch: 21 September)

Event Time Altitude Azimuth Distance (km) Brightness Sun altitude
Exits shadow 23:39:33 60° 193° (SSW) 1,103 3.9 -25.4°
Maximum altitude 23:40:48 88° 276° (W) 977 3.9 -25.4°
Drops below altitude 10° 23:47:01 10° 9° (N) 2,708 7.3 -25.5°
Sets 23:49:31 0° 10° (N) 3,653 8.3 -25.5°
